Location: Ahausen
(50.4985°N, 8.2722°E)
Time: 07:18:52
(UTC+00:00)

Resurs 01 Rocket - Pass Details

Date: 18 September 2020
Orbit: 633 x 645 km, 98.0° (Epoch: 22 October)

Event Time Altitude Azimuth Distance (km) Brightness Sun altitude
Exits shadow 19:19:16 33° 113° (ESE) 1,087 2.2 -17.1°
Maximum altitude 19:20:41 44° 69° (ENE) 897 2.0 -17.3°
Drops below altitude 10° 19:24:56 10° 357° (N) 2,054 4.6 -18.0°
Sets 19:27:13 0° 351° (N) 2,967 5.6 -18.3°
